Location: Tabor
(49.4170°N, 14.6670°E)
Time: 06:13:08
(UTC+02:00)

ISS - Visible Passes

Search period start: 18 May 2021 00:00
Search period end: 28 May 2021 00:00
Orbit: 417 x 422 km, 51.6° (Epoch: 18 May)

Date Brightness Start Highest point End Pass type
(mag) Time Alt. Az. Time Alt. Az. Time Alt. Az.
18 May -3.6 01:19:46 10° WNW 01:22:52 70° NW 01:22:52 70° NW visible
18 May -3.5 21:18:35 10° SW 21:21:50 47° SSE 21:25:05 10° ENE visible
18 May -3.3 22:55:16 10° W 22:58:37 63° N 23:01:59 10° ENE visible
19 May -3.4 00:32:17 10° WNW 00:35:39 65° N 00:36:27 46° ENE visible
19 May -1.1 02:09:11 10° WNW 02:09:23 11° WNW 02:09:23 11° WNW visible
19 May -3.6 22:07:45 10° W 22:11:07 75° NNW 22:14:29 10° ENE visible
19 May -3.2 23:44:48 10° WNW 23:48:08 58° N 23:50:16 20° E visible
20 May -2.1 01:21:40 10° WNW 01:23:12 24° W 01:23:12 24° W visible
20 May -3.1 22:57:17 10° W 23:00:36 56° N 23:03:56 10° E visible
21 May -3.6 00:34:11 10° WNW 00:37:06 63° W 00:37:06 63° W visible
21 May -3.1 22:09:44 10° W 22:13:04 57° N 22:16:25 10° ENE visible
21 May -3.7 23:46:43 10° WNW 23:50:05 78° NNE 23:51:03 43° E visible
22 May -1.1 01:23:43 10° W 01:23:59 12° W 01:23:59 12° W visible
22 May -3.2 21:22:12 10° W 21:25:32 63° N 21:28:54 10° ENE visible
22 May -3.4 22:59:13 10° WNW 23:02:35 66° NNE 23:05:02 17° E visible
23 May -2.3 00:36:06 10° WNW 00:37:58 27° W 00:37:58 27° W visible
23 May -3.2 22:11:43 10° WNW 22:15:03 59° N 22:18:24 10° E visible
23 May -3.8 23:48:35 10° WNW 23:51:55 61° SSW 23:51:59 61° SSW visible
24 May -3.9 23:01:05 10° WNW 23:04:28 83° SSW 23:06:00 30° ESE visible
25 May -1.3 00:38:21 10° W 00:38:57 13° W 00:38:57 13° W visible
25 May -3.7 22:13:36 10° WNW 22:16:58 78° NNE 22:20:04 12° ESE visible
25 May -2.5 23:50:36 10° W 23:53:01 28° SW 23:53:01 28° SW visible
26 May -3.2 23:02:59 10° WNW 23:06:12 42° SSW 23:07:05 34° S visible
27 May -3.6 22:15:26 10° WNW 22:18:46 61° SSW 22:21:12 17° SE visible
27 May -1.3 23:53:17 10° WSW 23:54:09 13° WSW 23:54:09 13° WSW visible
